Tallevast, FL

4:10 PM EST on March 01, 2017 (GMT -0500)
Sarasota-bradenton

Weather History for KSRQ - February, 2011

Change the Weather History Date:

Thursday, February 24, 2011

  Actual Average Record
Temperature  
Mean Temperature 71 °F 64 °F  
Max Temperature 79 °F 74 °F 87 °F (2001)
Min Temperature 62 °F 55 °F 32 °F (1964)
Degree Days  
Heating Degree Days 0 3  
Month to date heating degree days 82 86  
Since 1 July heating degree days 691 406  
Cooling Degree Days 6 2  
Month to date cooling degree days 43 44  
Year to date cooling degree days 51 96  
Growing Degree Days 20 (Base 50)    
Moisture  
Dew Point 62 °F    
Average Humidity 81    
Maximum Humidity 93    
Minimum Humidity 54    
Precipitation  
Precipitation 0.00 in 0.14 in 1.53 in (1990)
Month to date precipitation 0.78 2.12  
Year to date precipitation 3.59 4.61  
Sea Level Pressure  
Sea Level Pressure 30.10 in    
Wind  
Wind Speed 7 mph (ESE)    
Max Wind Speed 15 mph    
Max Gust Speed 18 mph    
Visibility 9 miles    
Events      
T = Trace of Precipitation, MM = Missing Value Source: NWS Daily Summary

Daily Weather History Graph

Daily Weather History Graph

Search for Another Location

Airport or City:

Trip Planner

Search our weather history database for the weather conditions in past years. The results will help you decide how hot, cold, wet, or windy it might be!

Date:

Astronomy

Feb. 24, 2011 Rise Set
Actual Time 6:59 AM EST 6:27 PM EST
Civil Twilight 6:35 AM EST 6:51 PM EST
Nautical Twilight 6:08 AM EST 7:18 PM EST
Astronomical Twilight 5:41 AM EST 7:45 PM EST
Moon 12:35 AM EST (2/24) 11:18 AM EST (2/24)
Length of Visible Light 12h 15m
Length of Day
11h 28m
Waning Gibbous, 53% of the Moon is Illuminated
Feb 24
Waning Gibbous
Feb 24
Last Quarter
Mar 4
New
Mar 12
First Quarter
Mar 19
Full

Hourly Weather History & Observations

Time (EST) Temp. Dew Point Humidity Pressure Visibility Wind Dir Wind Speed Gust Speed Precip Events Conditions
12:53 AM 62.6 °F 60.8 °F 94% 30.14 in 10.0 mi East 5.8 mph - N/A   Clear
1:53 AM 63.0 °F 60.1 °F 90% 30.12 in 9.0 mi ESE 10.4 mph - N/A   Clear
2:24 AM 62.6 °F 60.8 °F 94% 30.12 in 8.0 mi ENE 9.2 mph - N/A   Scattered Clouds
2:32 AM 62.6 °F 60.8 °F 94% 30.12 in 8.0 mi ENE 13.8 mph - N/A   Mostly Cloudy
2:53 AM 63.0 °F 61.0 °F 93% 30.12 in 7.0 mi East 9.2 mph - N/A   Overcast
3:53 AM 63.0 °F 61.0 °F 93% 30.11 in 9.0 mi East 10.4 mph - N/A   Overcast
4:53 AM 64.0 °F 61.0 °F 90% 30.12 in 9.0 mi East 10.4 mph - N/A   Overcast
5:53 AM 64.0 °F 61.0 °F 90% 30.12 in 9.0 mi East 9.2 mph - N/A   Overcast
6:53 AM 62.6 °F 60.8 °F 94% 30.14 in 7.0 mi East 8.1 mph - N/A   Overcast
7:53 AM 64.0 °F 62.1 °F 93% 30.14 in 7.0 mi ESE 9.2 mph - N/A   Overcast
8:53 AM 64.9 °F 62.1 °F 90% 30.15 in 8.0 mi ESE 9.2 mph - N/A   Overcast
9:53 AM 66.9 °F 62.1 °F 84% 30.16 in 10.0 mi East 11.5 mph - N/A   Overcast
10:20 AM 69.8 °F 62.6 °F 78% 30.16 in 10.0 mi ESE 12.7 mph - N/A   Overcast
10:53 AM 72.0 °F 63.0 °F 73% 30.16 in 10.0 mi East 11.5 mph - N/A   Mostly Cloudy
10:57 AM 73.4 °F 62.6 °F 69% 30.16 in 10.0 mi ESE 9.2 mph - N/A   Scattered Clouds
11:14 AM 73.4 °F 62.6 °F 69% 30.16 in 10.0 mi East 8.1 mph - N/A   Mostly Cloudy
11:38 AM 75.2 °F 62.6 °F 65% 30.15 in 10.0 mi SE 6.9 mph - N/A   Partly Cloudy
11:53 AM 75.9 °F 63.0 °F 64% 30.14 in 10.0 mi SE 6.9 mph - N/A   Partly Cloudy
12:53 PM 78.1 °F 61.0 °F 56% 30.11 in 10.0 mi ESE 6.9 mph - N/A   Partly Cloudy
1:53 PM 72.0 °F 64.0 °F 76% 30.08 in 10.0 mi SW 9.2 mph - N/A   Mostly Cloudy
2:53 PM 73.9 °F 64.0 °F 71% 30.06 in 10.0 mi Variable 5.8 mph - N/A   Partly Cloudy
3:53 PM 73.0 °F 64.0 °F 73% 30.04 in 10.0 mi WSW 8.1 mph - N/A   Mostly Cloudy
4:53 PM 73.9 °F 63.0 °F 68% 30.04 in 10.0 mi SW 8.1 mph - N/A   Scattered Clouds
5:53 PM 72.0 °F 62.1 °F 71% 30.03 in 10.0 mi SSW 6.9 mph - N/A   Partly Cloudy
6:53 PM 70.0 °F 63.0 °F 78% 30.04 in 10.0 mi Calm Calm - N/A   Partly Cloudy
7:53 PM 69.1 °F 63.0 °F 81% 30.04 in 10.0 mi SW 3.5 mph - N/A   Scattered Clouds
8:53 PM 69.1 °F 63.0 °F 81% 30.05 in 10.0 mi Calm Calm - N/A   Partly Cloudy
9:53 PM 66.9 °F 63.0 °F 87% 30.05 in 10.0 mi Calm Calm - N/A   Clear
10:53 PM 66.0 °F 62.1 °F 87% 30.05 in 10.0 mi SE 3.5 mph - N/A   Mostly Cloudy
11:53 PM 64.0 °F 61.0 °F 90% 30.04 in 10.0 mi SE 3.5 mph - N/A   Scattered Clouds